OpenBCM V1.13 (Linux)

Packet Radio Mailbox

DB0FHN

[JN59NK Nuernberg]

 Login: GUEST





  
LU9DCE > KEP      24.03.19 19:34l 253 Lines 12370 Bytes #999 (0) @ WW
BID : 20485_LU9DCE
Read: DF7EAV DK3UZ GUEST
Subj: TLE 24 03
Path: DB0FHN<DB0BLO<DB0ERF<DB0RES<PI8CDR<GB7YEW<VA3TOK<LU9DCE
Sent: 190324/1802Z 20485@LU9DCE.TOR.BA.ARG.SOAM LinBPQ6.0.18

            __    _  _  ___  ____   ___  ____    ____  ____  ____
           (  )  / )( \/ _ \(    \ / __)(  __)  (  _ \(  _ \/ ___)
           / (_/\) \/ (\__  )) D (( (__  ) _)    ) _ ( ) _ (\___ \
           \____/\____/(___/(____/ \___)(____)  (____/(____/(____/
               ESTACION DE PACKET RADIO - BUENOS AIRES (GF05OM)
                   BOLETINES INFORMATIVOS PROGRAMADOS (BIP)
                  SOPORTE TECNICO - HELLOCODELINUX@GMAIL.COM

+----------------------------------------------------------------------------+
OSCAR 7
1  7530U 74089B   19083.21265253 -.00000042  00000-0  17808-4 0  9995
2  7530 101.7341  51.7961 0012237 152.5474 325.1491 12.53637216 29682
OSCAR 11 (UoSAT 2)
1 14781U 84021B   19082.86794555 +.00000047 +00000-0 +11919-4 0  9991
2 14781 097.6201 111.6512 0007173 239.5254 120.5253 14.83071058864893
OSCAR 19 (LUSAT)
1 20442U 90005G   19082.80401020  .00000012  00000-0  20769-4 0  9992
2 20442  98.6408  24.9886 0012682  49.2256 311.0026 14.32920122523934
EYESAT A
1 22825U 93061C   19082.95092834 -.00000022 +00000-0 +93190-5 0  9990
2 22825 098.8978 069.6347 0007370 249.3337 110.7054 14.30053804329283
ITAMSAT
1 22826U 93061D   19082.90284001 -.00000022 +00000-0 +93854-5 0  9992
2 22826 098.8919 069.5880 0007981 237.3104 122.7309 14.30386904329496
RADIO ROSTO
1 23439U 94085A   19082.89219031 -.00000060 +00000-0 -48655-3 0  9999
2 23439 064.8140 256.4910 0148242 129.8823 339.8517 11.27568291998102
JAS 2
1 24278U 96046B   19083.40599479 -.00000027  00000-0  54609-5 0  9995
2 24278  98.5239 248.5770 0351375 103.7982 260.2514 13.53090014116136
TECHSAT 1B
1 25397U 98043D   19083.38467768 -.00000011  00000-0  14436-4 0  9995
2 25397  98.6814  24.6110 0000434 349.9705  10.1465 14.23662132 75599
ISS (ZARYA)
1 25544U 98067A   19083.39888544 -.00023498  00000-0 -37103-3 0  9995
2 25544  51.6454  62.7191 0002215 117.6181   9.0449 15.52436074162088
PCSAT
1 26931U 01043C   19082.87663377 -.00000040  00000-0  16559-4 0  9991
2 26931  67.0504 227.7019 0005490 275.6006  84.4469 14.30535904912558
SAUDISAT 1C
1 27607U 02058C   19082.92985320 -.00000031 +00000-0 +16569-4 0  9991
2 27607 064.5551 314.8574 0082366 273.0517 086.1163 14.75529027874109
CUTE-1
1 27844U 03031E   19082.90567808 +.00000027 +00000-0 +31938-4 0  9992
2 27844 098.6869 092.4064 0008676 283.8705 076.1507 14.22166063815919
CUBESAT XI 4
1 27848U 03031J   19082.94353551 +.00000018 +00000-0 +28187-4 0  9990
2 27848 098.6948 092.9239 0008636 296.2987 063.7303 14.21762863815786
MOZHAYETS 4
1 27939U 03042A   19083.54803900  .00000066  00000-0  20376-4 0  9993
2 27939  98.0250 221.1157 0012204 347.2866  12.8030 14.66762268827919
CUBESAT XI 5
1 28895U 05043F   19083.16580882  .00000093  00000-0  26751-4 0  9990
2 28895  97.9443 228.9324 0015444 264.0017  95.9426 14.63640625714822
CUTE-1.7+APD II
1 32785U 08021C   19082.88789790  .00000159  00000-0  22765-4 0  9993
2 32785  97.5495  86.7019 0012888 184.1665 175.9447 14.88266470590776
DELFI C3
1 32789U 08021G   19082.89242999  .00001412  00000-0  98872-4 0  9998
2 32789  97.4752 135.1393 0013625  66.8128 293.4533 15.06735461593899
SEEDS
1 32791U 08021J   19082.98475039  .00000267  00000-0  32447-4 0  9997
2 32791  97.5303  92.6671 0013879 160.5878 199.5872 14.90757550591194
YUBELEINY
1 32953U 08025A   19083.52666633  .00000020  00000-0  75656-4 0  9990
2 32953  82.5070 198.3342 0018001 319.5797  40.3945 12.43088223491605
PRISM (HITOMI)
1 33493U 09002B   19083.21370642 -.00000077  00000-0 -11925-5 0  9998
2 33493  98.1229   0.8942 0016279 107.1741 253.1263 14.96550244552211
KKS-1 (KISEKI)
1 33499U 09002H   19082.93619647 +.00000077 +00000-0 +19409-4 0  9995
2 33499 098.3549 278.8466 0010311 119.1188 241.1054 14.75416195546009
SWISSCUBE
1 35932U 09051B   19082.68035731  .00000113  00000-0  36540-4 0  9997
2 35932  98.5770 246.1521 0008738  76.1717 284.0452 14.56255303504116
BEESAT
1 35933U 09051C   19083.16969672  .00000091  00000-0  31567-4 0  9991
2 35933  98.5804 248.3697 0007017  86.5838 273.6161 14.56348275504292
ITUPSAT 1
1 35935U 09051E   19083.17760861  .00000055  00000-0  23810-4 0  9995
2 35935  98.5916 248.6212 0009304  83.1074 277.1180 14.55512081504051
XIWANG-1 (HOPE-1)
1 36122U 09072B   19082.71034874 -.00000014 +00000-0 +74584-4 0  9994
2 36122 100.0745 089.1814 0007691 180.3348 179.7769 13.16349134445435
TISAT 1
1 36799U 10035E   19082.98010675  .00000249  00000-0  31291-4 0  9994
2 36799  98.1419 232.3244 0012428  17.0625 343.1007 14.91032423471847
JUGNU
1 37839U 11058B   19083.42035456  .00000329  00000-0  33847-4 0  9998
2 37839  19.9605 137.9315 0019042  95.7261 338.1011 14.12645162385046
SRMSAT
1 37841U 11058D   19082.71754123 +.00000320 +00000-0 +30595-4 0  9999
2 37841 019.9709 197.1712 0011844 322.0189 155.2558 14.10627206384309
M-CUBED/EXP-1 PRIME
1 37855U 11061F   19083.52377166  .00000940  00000-0  55249-4 0  9997
2 37855 101.7267 294.8416 0174222 332.1959  27.0022 15.05211347403816
HORYU 2
1 38340U 12025D   19082.92068517 +.00000141 +00000-0 +28598-4 0  9998
2 38340 098.3400 118.8597 0012323 046.0068 314.2154 14.75681968357952
STRAND 1
1 39090U 13009E   19083.19071438  .00000022  00000-0  22827-4 0  9997
2 39090  98.4972 290.5546 0009091 178.8477 181.2731 14.35075054317989
SOMP
1 39134U 13015E   19083.10635198  .00000880  00000-0  50022-4 0  9993
2 39134  64.8629 300.9086 0022650 315.9237  44.0083 15.19917854327436
BEESAT 3
1 39135U 13015F   19083.13953241  .00000445  00000-0  32072-4 0  9991
2 39135  64.8683 317.9083 0010078 301.0324  58.9812 15.17273273327113
BEESAT 2
1 39136U 13015G   19083.14454797  .00000442  00000-0  32394-4 0  9999
2 39136  64.8702 321.4495 0011552 297.0877  62.9070 15.16717462327043
CUBEBUG 1
1 39153U 13018D   19083.52653088  .00000171  00000-0  29285-4 0  9991
2 39153  97.9743 182.1639 0018287 116.2788 244.0305 14.80528807319072
ZACUBE
1 39417U 13066B   19083.16156825  .00000152  00000-0  25614-4 0  9995
2 39417  97.5683 101.5021 0057903 318.8356  40.8497 14.81072346288233
TRITON 1
1 39427U 13066M   19083.49380362  .00000194  00000-0  38550-4 0  9996
2 39427  97.6686  66.2396 0115426  81.5843 279.8427 14.67795584285694
GOMX 1
1 39430U 13066Q   19083.49845995  .00000150  00000-0  35977-4 0  9990
2 39430  97.7357  45.7819 0151542 165.4752 195.0861 14.59209778284030
HUMSAT D
1 39433U 13066T   19083.10770455  .00000228  00000-0  27646-4 0  9999
2 39433  97.5653 134.1022 0029763 227.4458 132.4249 14.92111295290169
CUBEBUG 2
1 39440U 13066AA  19083.50971456  .00000188  00000-0  33150-4 0  9997
2 39440  97.6019  87.0400 0080462   6.0993 354.1177 14.75810714287261
FUNCUBE 1
1 39444U 13066AE  19082.93953550 +.00000196 +00000-0 +30640-4 0  9992
2 39444 097.5671 103.1500 0056903 313.7420 045.9090 14.81881835286497
UWE-3
1 39446U 13066AG  19083.18760127  .00000176  00000-0  30159-4 0  9991
2 39446  97.5838  93.6452 0069576 343.6017  16.2944 14.78345507286482
SPROUT
1 39770U 14029E   19083.38117778  .00000495  00000-0  61099-4 0  9992
2 39770  97.8800 187.2814 0009165  19.9039 340.2538 14.87221844262009
UNISAT 6
1 40012U 14033C   19083.18924777  .00000135  00000-0  27597-4 0  9997
2 40012  97.7707 313.4599 0058907  18.2673 342.0633 14.73940454255943
DUCHIFAT 1
1 40021U 14033M   19082.74662236  .00000379  00000-0  44589-4 0  9997
2 40021  97.9225   7.0672 0012590 343.4393  16.6412 14.90552720258595
QB50P1
1 40025U 14033R   19082.73795216  .00000228  00000-0  30302-4 0  9996
2 40025  97.9065   2.5638 0012270 352.5509   7.5523 14.88887187258382
CHUBUSAT 1
1 40300U 14070C   19083.53995649  .00000456  00000-0  22922-4 0  9996
2 40300  97.3346 159.8789 0020186   3.7966 110.6280 15.21959564242919
NUDT-PHONESAT
1 40900U 15049B   19083.49263779  .00001748  00000-0  78509-4 0  9993
2 40900  97.4402  93.6863 0014682 122.2706   8.2192 15.22407556194549
ZDPS 2A
1 40901U 15049C   19083.50827546  .00000535  00000-0  29927-4 0  9997
2 40901  97.4609  90.5834 0014793 136.6859 350.7845 15.17561920194162
ZDPS 2B
1 40902U 15049D   19083.51991889  .00000627  00000-0  34708-4 0  9996
2 40902  97.4537  88.2079 0014822 134.1243 344.0425 15.17336513194147
XW-2A
1 40903U 15049E   19083.45655642  .00001550  00000-0  38886-4 0  9991
2 40903  97.3493 125.6943 0015815  96.9853  15.7966 15.41497171196968
KAITUO 1A
1 40904U 15049F   19083.49669716  .00000231  00000-0  15750-4 0  9993
2 40904  97.4663  86.9892 0015717 140.4825 337.1997 15.15275720193941
OBJECT G
1 40905U 15049G   19083.51595591  .00000262  00000-0  17909-4 0  9998
2 40905  97.4688  84.6690 0016834 135.6993 340.3253 15.14210929193831
XW-2C
1 40906U 15049H   19083.38066222  .00000370  00000-0  22966-4 0  9997
2 40906  97.4668  86.8991 0016087 133.5081 334.9523 15.15550695193920
XW-2D
1 40907U 15049J   19083.50273185  .00000340  00000-0  21253-4 0  9995
2 40907  97.4646  86.6977 0015607 130.1272 349.2492 15.15728334193955
LILACSAT 2
1 40908U 15049K   19083.39969635  .00000576  00000-0  35468-4 0  9999
2 40908  97.4776  85.5770 0017088 135.9587 333.9250 15.13730349193753
XW-2F
1 40910U 15049M   19083.41059433  .00001050  00000-0  56248-4 0  9998
2 40910  97.4624  88.4297 0016269 124.9025 344.9999 15.17100972193938
XW-2B
1 40911U 15049N   19083.39737197  .00000772  00000-0  43969-4 0  9992
2 40911  97.4676  87.2220 0015465 131.6123 336.2940 15.15665355193838
KAITUO 1B
1 40912U 15049P   19083.57355959  .00000851  00000-0  43313-4 0  9996
2 40912  97.4513  92.0494 0016954 110.4493   7.8365 15.19385426194234
TIANWANG 1C (TW-1C)
1 40926U 15051B   19083.41469417  .00009042  00000-0  14224-3 0  9991
2 40926  97.1483 129.7598 0007469 345.0057 140.5816 15.53800919196750
